DECAYED

CZ-6A DEB, 54594 (Decayed)

Orbit data source: Space-Track

CZ-6A DEB, 54594 was space debris in SSO originally from a launch on Fri, 11 Nov 2022 UTC launched from the Taiyaun Space Center, China (TSC). Debris objects in space refer to the collection of defunct objects orbiting the Earth. Examples of debris include non-operational satellites, rocket bodies, and fragments generated from explosions, collisions, or faulty payload assembly.

Not visible in the next 10 days
Identifier
54594, 2022-151MU
Orbit
Decayed
Country
Flag of CNCN / PRC
Related business
Manufacturer
SAST
Mission
Decayed spacecraft
Bus & Motor
Unknown
Mass
Unknown
Launch date (UTC)
2022-11-11 (4 years ago)
Launch vehicle
Unknown
Launch site
Taiyaun Space Center, China (TSC)
Object type
Payload
Rocket body
Debris
Shape & HBR
Unknown shape, 0.1 m
Radar Cross Section
Small (<0.1 m²)

Expand to show TLE details & history
Last TLE update: 1 year ago

TLE from 1 year ago
0 CZ-6A DEB
1 54594U 22151MU  25121.17780652  .02099280  00000-0  15863-1 0  9999
2 54594  98.6130 197.9762 0025779 301.9716  57.9036 15.68932451131047
Epoch: 2025-05-01T04:16Z
TLE epoch observation values (Epoch: 2025-05-01T04:16:02.483Z)
Latitude
-0.00001°
Longitude
-85.38665°
Altitude
355.869 km
Speed
7.701 km/s
True Right ascension
13h 11m 54s
True Declination
0° 00' 00"
Sunlit
Object was in full shadow at epoch
Visualization orbit readout
Latitude
Unknown
Longitude
Unknown
Altitude
Unknown
Speed
Unknown
Apparent Right ascension
Unknown
Apparent Declination
Unknown
Sunlit
N/A
Visualization observer readout
Local Sidereal Time
21:36:19
Azimuth
Unknown
Elevation
Unknown
Doppler factor
Unknown
Orbital elements
Apogee altitude
376.278 km
Perigee altitude
341.543 km
Semi-major axis
6,737.048 km
Eccentricity
0.00258
Inclination
98.613°
RAAN
197.9762°
Arg. of periapsis
301.9716°
True anomaly
58.15428°
Mean anomaly
57.9036°
Eccentric anomaly
58.0289°
Mean motion
3.92499 °/min
Orbital period
91.72 mins
BSTAR
0.015863
Loading maneuver chart data...
Computing Atmospheric mass density...
Loading historical data...
Loading historical data...
Loading historical data...
Loading historical data...
Loading historical data...
Loading historical data...
Loading historical data...

Documentation

Showing up to 5 results
|